When you browse on this site, cookies collect data to enhance your experience and personalize the content and advertising you see.
Visit our Privacy Policy to learn more. By continuing to use the site, you agree to this use of cookies and data.
  • In Germany
  • List of Countries
  • For 7 days
  • Water Temperature
  • Weather Map
  • Weather Widgets
  • user-avatar
    Login

    Hourly Weather Bergen

    Today, 29 March, Sunday

    Time Temperature Precipitation Wind Pressure Humidity
    00:00 -6°C° 0 mm 5 mps 773 mmHg 66%
    01:00 -6°C° 0 mm 5 mps 773 mmHg 68%
    02:00 -6°C° 0 mm 5 mps 773 mmHg 69%
    03:00 -6°C° 0 mm 5 mps 773 mmHg 70%
    04:00 -6°C° 0 mm 5 mps 773 mmHg 71%
    05:00 -6°C° 0 mm 5 mps 773 mmHg 72%
    06:00 -5°C° 0 mm 4 mps 774 mmHg 68%
    07:00 -3°C° 0 mm 4 mps 773 mmHg 67%
    08:00 -1°C° 0 mm 3 mps 773 mmHg 66%
    09:00 0°C° 0 mm 3 mps 772 mmHg 64%
    10:00 -1°C° 0.7 mm 4 mps 771 mmHg 75%
    11:00 -1°C° 0.7 mm 4 mps 770 mmHg 85%
    12:00 -1°C° 0.7 mm 5 mps 770 mmHg 95%
    13:00 -1°C° 0.5 mm 5 mps 769 mmHg 92%
    14:00 -1°C° 0.5 mm 6 mps 768 mmHg 88%
    15:00 -1°C° 0.5 mm 6 mps 767 mmHg 85%
    16:00 -1°C° 0.5 mm 6 mps 766 mmHg 89%
    17:00 -1°C° 0.5 mm 7 mps 766 mmHg 92%
    18:00 -1°C° 0.5 mm 7 mps 765 mmHg 96%
    19:00 -1°C° 0.3 mm 7 mps 765 mmHg 94%
    20:00 0°C° 0.3 mm 8 mps 765 mmHg 93%
    21:00 0°C° 0.3 mm 8 mps 765 mmHg 92%
    22:00 0°C° 0.1 mm 7 mps 765 mmHg 91%
    23:00 -1°C° 0.1 mm 7 mps 765 mmHg 91%

    Tomorrow, 30 March, Monday

    Time Temperature Precipitation Wind Pressure Humidity
    00:00 -1°C° 0.1 mm 7 mps 765 mmHg 91%
    01:00 -2°C° 0 mm 7 mps 765 mmHg 90%
    02:00 -2°C° 0 mm 6 mps 765 mmHg 89%
    03:00 -3°C° 0 mm 6 mps 765 mmHg 88%
    04:00 -3°C° 0 mm 6 mps 765 mmHg 86%
    05:00 -4°C° 0 mm 5 mps 766 mmHg 85%
    06:00 -4°C° 0 mm 5 mps 766 mmHg 83%
    07:00 -2°C° 0 mm 4 mps 766 mmHg 78%
    08:00 -1°C° 0 mm 4 mps 766 mmHg 73%
    09:00 0°C° 0 mm 4 mps 766 mmHg 68%
    10:00 +1°C° 0 mm 4 mps 766 mmHg 66%
    11:00 +1°C° 0 mm 4 mps 766 mmHg 65%
    12:00 +3°C° 0 mm 4 mps 766 mmHg 64%
    13:00 +3°C° 0 mm 4 mps 766 mmHg 64%
    14:00 +3°C° 0 mm 4 mps 766 mmHg 65%
    15:00 +3°C° 0 mm 4 mps 766 mmHg 65%
    16:00 +2°C° 0 mm 3 mps 766 mmHg 70%
    17:00 +1°C° 0 mm 3 mps 766 mmHg 75%
    18:00 +1°C° 0 mm 2 mps 766 mmHg 79%
    19:00 +1°C° 0 mm 2 mps 766 mmHg 80%
    20:00 +1°C° 0 mm 1 mps 766 mmHg 81%
    21:00 +1°C° 0 mm 1 mps 766 mmHg 82%
    22:00 +1°C° 0 mm 1 mps 766 mmHg 82%
    23:00 +1°C° 0 mm 1 mps 766 mmHg 82%

    Day after tomorrow, 31 March, Tuesday

    Time Temperature Precipitation Wind Pressure Humidity
    00:00 -1°C° 0 mm 2 mps 766 mmHg 81%
    01:00 -1°C° 0 mm 2 mps 765 mmHg 82%
    02:00 0°C° 0 mm 3 mps 765 mmHg 83%
    03:00 0°C° 0 mm 3 mps 764 mmHg 84%
    04:00 0°C° 0.2 mm 3 mps 764 mmHg 87%
    05:00 -1°C° 0.2 mm 4 mps 763 mmHg 90%
    06:00 0°C° 0.2 mm 4 mps 763 mmHg 93%
    07:00 +1°C° 0.3 mm 3 mps 762 mmHg 95%
    08:00 +1°C° 0.3 mm 3 mps 761 mmHg 96%
    09:00 +2°C° 0.3 mm 3 mps 760 mmHg 97%
    10:00 +2°C° 0.3 mm 3 mps 760 mmHg 96%
    11:00 +3°C° 0.3 mm 3 mps 759 mmHg 95%
    12:00 +3°C° 0.3 mm 3 mps 759 mmHg 95%
    13:00 +3°C° 0.2 mm 4 mps 758 mmHg 94%
    14:00 +3°C° 0.2 mm 4 mps 757 mmHg 94%
    15:00 +4°C° 0.2 mm 4 mps 757 mmHg 94%
    16:00 +3°C° 0.2 mm 4 mps 756 mmHg 94%
    17:00 +3°C° 0.2 mm 4 mps 756 mmHg 95%
    18:00 +3°C° 0.2 mm 4 mps 756 mmHg 95%
    19:00 +3°C° 0.4 mm 4 mps 755 mmHg 95%
    20:00 +3°C° 0.4 mm 4 mps 755 mmHg 96%
    21:00 +2°C° 0.4 mm 5 mps 755 mmHg 96%
    22:00 +3°C° 0.3 mm 4 mps 755 mmHg 96%
    23:00 +3°C° 0.3 mm 4 mps 754 mmHg 96%

    1 April, Wednesday

    Time Temperature Precipitation Wind Pressure Humidity
    00:00 +3°C° 0.3 mm 3 mps 754 mmHg 96%
    01:00 +3°C° 0.2 mm 3 mps 754 mmHg 96%
    02:00 +4°C° 0.2 mm 2 mps 753 mmHg 96%
    03:00 +4°C° 0.2 mm 1 mps 752 mmHg 96%
    04:00 +3°C° 0.6 mm 2 mps 752 mmHg 96%
    05:00 +3°C° 0.6 mm 2 mps 751 mmHg 97%
    06:00 +2°C° 0.6 mm 3 mps 751 mmHg 98%
    07:00 +3°C° 1 mm 4 mps 750 mmHg 97%
    08:00 +3°C° 1 mm 4 mps 749 mmHg 97%
    09:00 +3°C° 1 mm 5 mps 748 mmHg 96%
    10:00 +3°C° 1.1 mm 6 mps 747 mmHg 97%
    11:00 +3°C° 1.1 mm 6 mps 747 mmHg 97%
    12:00 +3°C° 1.1 mm 7 mps 746 mmHg 98%
    13:00 +3°C° 2.1 mm 6 mps 745 mmHg 98%
    14:00 +3°C° 2.1 mm 6 mps 744 mmHg 98%
    15:00 +3°C° 2.1 mm 6 mps 743 mmHg 98%
    16:00 +3°C° 0.9 mm 6 mps 742 mmHg 97%
    17:00 +3°C° 0.9 mm 6 mps 742 mmHg 96%
    18:00 +3°C° 0.9 mm 5 mps 741 mmHg 95%
    19:00 +3°C° 0.4 mm 5 mps 741 mmHg 95%
    20:00 +3°C° 0.4 mm 5 mps 741 mmHg 94%
    21:00 +4°C° 0.4 mm 4 mps 742 mmHg 94%
    22:00 +2°C° 0.1 mm 5 mps 742 mmHg 93%
    23:00 +2°C° 0.1 mm 6 mps 742 mmHg 91%

    2 April, Thursday

    Time Temperature Precipitation Wind Pressure Humidity
    00:00 0°C° 0.1 mm 7 mps 742 mmHg 90%
    01:00 +1°C° 0 mm 6 mps 742 mmHg 88%
    02:00 0°C° 0 mm 5 mps 742 mmHg 86%
    03:00 0°C° 0 mm 4 mps 742 mmHg 84%
    04:00 0°C° 0 mm 3 mps 742 mmHg 85%
    05:00 +1°C° 0 mm 2 mps 742 mmHg 86%
    06:00 -1°C° 0 mm 2 mps 741 mmHg 86%
    07:00 0°C° 0.2 mm 3 mps 740 mmHg 89%
    08:00 -1°C° 0.2 mm 5 mps 739 mmHg 92%
    09:00 -1°C° 0.2 mm 6 mps 739 mmHg 94%
    10:00 -1°C° 0.9 mm 8 mps 737 mmHg 94%
    11:00 0°C° 0.9 mm 10 mps 735 mmHg 94%
    12:00 -1°C° 0.9 mm 12 mps 734 mmHg 93%
    13:00 -2°C° 1.9 mm 11 mps 732 mmHg 93%
    14:00 -2°C° 1.9 mm 11 mps 731 mmHg 93%
    15:00 -3°C° 1.9 mm 11 mps 730 mmHg 92%
    16:00 -3°C° 0.6 mm 10 mps 729 mmHg 90%
    17:00 -4°C° 0.6 mm 9 mps 728 mmHg 88%
    18:00 -4°C° 0.6 mm 8 mps 728 mmHg 86%
    19:00 -4°C° 0.7 mm 9 mps 727 mmHg 86%
    20:00 -4°C° 0.7 mm 9 mps 726 mmHg 85%
    21:00 -3°C° 0.7 mm 10 mps 726 mmHg 85%
    22:00 -4°C° 0.8 mm 8 mps 726 mmHg 83%
    23:00 -4°C° 0.8 mm 7 mps 726 mmHg 81%

    3 April, Friday

    Time Temperature Precipitation Wind Pressure Humidity
    00:00 -4°C° 0.8 mm 6 mps 727 mmHg 80%
    01:00 -5°C° 0 mm 5 mps 727 mmHg 79%
    02:00 -5°C° 0 mm 4 mps 728 mmHg 78%
    03:00 -6°C° 0 mm 3 mps 729 mmHg 77%
    04:00 -7°C° 0 mm 4 mps 730 mmHg 78%
    05:00 -6°C° 0 mm 6 mps 732 mmHg 78%
    06:00 -7°C° 0 mm 8 mps 733 mmHg 79%
    07:00 -5°C° 0 mm 8 mps 734 mmHg 78%
    08:00 -3°C° 0 mm 9 mps 736 mmHg 76%
    09:00 -1°C° 0 mm 9 mps 737 mmHg 75%
    10:00 0°C° 0 mm 9 mps 738 mmHg 72%
    11:00 0°C° 0 mm 9 mps 739 mmHg 70%
    12:00 +1°C° 0 mm 8 mps 740 mmHg 68%
    13:00 +2°C° 0 mm 7 mps 741 mmHg 68%
    14:00 +2°C° 0 mm 6 mps 742 mmHg 68%
    15:00 +2°C° 0 mm 5 mps 743 mmHg 68%
    16:00 +1°C° 0.4 mm 6 mps 743 mmHg 76%
    17:00 -1°C° 0.4 mm 7 mps 744 mmHg 84%
    18:00 -2°C° 0.4 mm 8 mps 744 mmHg 93%
    19:00 -3°C° 0.3 mm 7 mps 745 mmHg 89%
    20:00 -4°C° 0.3 mm 7 mps 746 mmHg 86%
    21:00 -4°C° 0.3 mm 6 mps 746 mmHg 82%
    22:00 -5°C° 0.1 mm 5 mps 747 mmHg 83%
    23:00 -5°C° 0.1 mm 5 mps 748 mmHg 84%
    Show more